Wetterdaten: Freitag, 26.06.2015
Datum Zeit Auen-Temp. Temp gefhlt Luftfeuchte Luftdruck Regen Wind Richtung Richtung Taupunkt Windben
26.06.2015 00:00 10,3 C 10,0 C 80 % 1025,2 hPa 0,0 mm 0,0 km/h (0 Bft) S-SO 157 7,0 C 0,0 km/h (0 Bft)
26.06.2015 00:05 10,0 C 9,8 C 79 % 1025,2 hPa 0,0 mm 0,0 km/h (0 Bft) NW 315 6,5 C 3,4 km/h (1 Bft)
26.06.2015 00:10 9,7 C 9,5 C 80 % 1025,2 hPa 0,0 mm 0,0 km/h (0 Bft) NW 315 6,4 C 0,0 km/h (0 Bft)
26.06.2015 00:15 9,5 C 9,3 C 80 % 1025,4 hPa 0,0 mm 0,0 km/h (0 Bft) W 270 6,2 C 0,0 km/h (0 Bft)
26.06.2015 00:20 9,7 C 9,4 C 81 % 1025,4 hPa 0,0 mm 0,0 km/h (0 Bft) W-SW 247 6,6 C 0,0 km/h (0 Bft)
26.06.2015 00:25 9,8 C 9,5 C 81 % 1025,4 hPa 0,0 mm 0,0 km/h (0 Bft) W 270 6,7 C 0,0 km/h (0 Bft)
26.06.2015 00:30 9,8 C 9,5 C 81 % 1025,4 hPa 0,0 mm 0,0 km/h (0 Bft) S 180 6,7 C 0,0 km/h (0 Bft)
26.06.2015 00:35 9,6 C 9,4 C 81 % 1024,9 hPa 0,0 mm 0,0 km/h (0 Bft) S 180 6,5 C 0,0 km/h (0 Bft)
26.06.2015 00:40 9,4 C 9,2 C 80 % 1024,9 hPa 0,0 mm 0,0 km/h (0 Bft) S 180 6,1 C 0,0 km/h (0 Bft)
26.06.2015 00:45 9,5 C 9,3 C 81 % 1024,9 hPa 0,0 mm 0,0 km/h (0 Bft) S 180 6,4 C 0,0 km/h (0 Bft)
26.06.2015 00:50 9,7 C 9,5 C 81 % 1024,9 hPa 0,0 mm 0,0 km/h (0 Bft) N-NO 22 6,6 C 0,0 km/h (0 Bft)
26.06.2015 00:55 9,6 C 9,4 C 81 % 1024,9 hPa 0,0 mm 0,0 km/h (0 Bft) N-NO 22 6,5 C 0,0 km/h (0 Bft)
26.06.2015 01:00 9,6 C 9,4 C 81 % 1024,9 hPa 0,0 mm 0,0 km/h (0 Bft) N-NO 22 6,5 C 0,0 km/h (0 Bft)
26.06.2015 01:05 9,5 C 9,3 C 81 % 1024,9 hPa 0,0 mm 0,0 km/h (0 Bft) N-NO 22 6,4 C 0,0 km/h (0 Bft)
26.06.2015 01:10 9,2 C 9,0 C 81 % 1024,9 hPa 0,0 mm 0,0 km/h (0 Bft) N-NO 22 6,1 C 0,0 km/h (0 Bft)
26.06.2015 01:15 9,1 C 8,9 C 81 % 1024,7 hPa 0,0 mm 0,0 km/h (0 Bft) N-NO 22 6,0 C 0,0 km/h (0 Bft)
26.06.2015 01:20 9,3 C 9,0 C 82 % 1024,7 hPa 0,0 mm 0,0 km/h (0 Bft) N-NO 22 6,4 C 0,0 km/h (0 Bft)
26.06.2015 01:25 9,3 C 9,1 C 82 % 1024,7 hPa 0,0 mm 0,0 km/h (0 Bft) NW 315 6,4 C 0,0 km/h (0 Bft)
26.06.2015 01:30 9,7 C 9,4 C 82 % 1024,7 hPa 0,0 mm 0,0 km/h (0 Bft) W-NW 292 6,8 C 0,0 km/h (0 Bft)
26.06.2015 01:35 10,0 C 9,8 C 82 % 1024,5 hPa 0,0 mm 0,0 km/h (0 Bft) S-SO 157 7,1 C 0,0 km/h (0 Bft)
26.06.2015 01:40 10,0 C 9,9 C 82 % 1024,5 hPa 0,0 mm 0,0 km/h (0 Bft) W-SW 247 7,1 C 0,0 km/h (0 Bft)
26.06.2015 01:45 10,1 C 9,9 C 82 % 1024,5 hPa 0,0 mm 0,0 km/h (0 Bft) S 180 7,2 C 0,0 km/h (0 Bft)
26.06.2015 01:50 9,9 C 9,8 C 82 % 1024,5 hPa 0,0 mm 0,0 km/h (0 Bft) NW 315 7,0 C 0,0 km/h (0 Bft)
26.06.2015 01:55 9,8 C 9,7 C 82 % 1024,6 hPa 0,0 mm 0,0 km/h (0 Bft) N-NW 337 6,9 C 2,8 km/h (1 Bft)
26.06.2015 02:00 9,9 C 9,7 C 82 % 1024,6 hPa 0,0 mm 0,3 km/h (0 Bft) W 270 7,0 C 0,0 km/h (0 Bft)
26.06.2015 02:05 9,9 C 9,7 C 82 % 1024,6 hPa 0,0 mm 0,3 km/h (0 Bft) W-NW 292 7,0 C 0,0 km/h (0 Bft)
26.06.2015 02:10 9,8 C 9,6 C 82 % 1024,6 hPa 0,0 mm 0,0 km/h (0 Bft) W-SW 247 6,9 C 0,0 km/h (0 Bft)
26.06.2015 02:15 9,7 C 9,6 C 82 % 1024,5 hPa 0,0 mm 0,0 km/h (0 Bft) N-NO 22 6,8 C 0,0 km/h (0 Bft)
26.06.2015 02:20 9,6 C 9,5 C 82 % 1024,5 hPa 0,0 mm 0,0 km/h (0 Bft) N-NO 22 6,7 C 0,0 km/h (0 Bft)
26.06.2015 02:25 9,4 C 9,3 C 82 % 1024,5 hPa 0,0 mm 0,0 km/h (0 Bft) N-NW 337 6,5 C 0,0 km/h (0 Bft)
26.06.2015 02:30 9,3 C 9,1 C 82 % 1024,5 hPa 0,0 mm 0,0 km/h (0 Bft) N-NO 22 6,4 C 0,0 km/h (0 Bft)
26.06.2015 02:35 9,1 C 8,9 C 82 % 1024,3 hPa 0,0 mm 0,0 km/h (0 Bft) N-NO 22 6,2 C 0,0 km/h (0 Bft)
26.06.2015 02:40 9,0 C 8,8 C 82 % 1024,3 hPa 0,0 mm 0,0 km/h (0 Bft) N-NO 22 6,1 C 0,0 km/h (0 Bft)
26.06.2015 02:45 8,9 C 8,7 C 82 % 1024,3 hPa 0,0 mm 0,0 km/h (0 Bft) N-NO 22 6,0 C 0,0 km/h (0 Bft)
26.06.2015 02:50 9,0 C 8,7 C 83 % 1024,3 hPa 0,0 mm 0,0 km/h (0 Bft) N-NO 22 6,3 C 0,0 km/h (0 Bft)
26.06.2015 02:55 8,9 C 8,6 C 83 % 1024,2 hPa 0,0 mm 0,0 km/h (0 Bft) NO 45 6,2 C 0,0 km/h (0 Bft)
26.06.2015 03:00 9,0 C 8,6 C 83 % 1024,2 hPa 0,0 mm 0,0 km/h (0 Bft) O-NO 67 6,3 C 0,0 km/h (0 Bft)
26.06.2015 03:05 9,0 C 8,6 C 84 % 1024,2 hPa 0,0 mm 0,0 km/h (0 Bft) NO 45 6,4 C 0,0 km/h (0 Bft)
26.06.2015 03:10 8,5 C 8,3 C 84 % 1024,2 hPa 0,0 mm 0,0 km/h (0 Bft) O 90 6,0 C 0,0 km/h (0 Bft)
26.06.2015 03:15 8,6 C 8,3 C 84 % 1024,3 hPa 0,0 mm 0,0 km/h (0 Bft) O-SO 112 6,1 C 0,0 km/h (0 Bft)
26.06.2015 03:20 8,6 C 8,3 C 84 % 1024,3 hPa 0,0 mm 0,0 km/h (0 Bft) O 90 6,1 C 0,0 km/h (0 Bft)
26.06.2015 03:25 8,2 C 8,0 C 84 % 1024,3 hPa 0,0 mm 0,0 km/h (0 Bft) O 90 5,7 C 0,0 km/h (0 Bft)
26.06.2015 03:30 8,0 C 7,8 C 84 % 1024,3 hPa 0,0 mm 0,0 km/h (0 Bft) O 90 5,5 C 0,0 km/h (0 Bft)
26.06.2015 03:35 7,9 C 7,7 C 84 % 1024,2 hPa 0,0 mm 0,0 km/h (0 Bft) O 90 5,4 C 0,0 km/h (0 Bft)
26.06.2015 03:40 7,9 C 7,6 C 84 % 1024,2 hPa 0,0 mm 0,0 km/h (0 Bft) O 90 5,4 C 0,0 km/h (0 Bft)
26.06.2015 03:45 8,0 C 7,7 C 84 % 1024,2 hPa 0,0 mm 0,0 km/h (0 Bft) O 90 5,5 C 0,0 km/h (0 Bft)
26.06.2015 03:50 7,9 C 7,7 C 85 % 1024,2 hPa 0,0 mm 0,0 km/h (0 Bft) O 90 5,5 C 0,0 km/h (0 Bft)
26.06.2015 03:55 7,8 C 7,6 C 85 % 1024,1 hPa 0,0 mm 0,0 km/h (0 Bft) O 90 5,4 C 0,0 km/h (0 Bft)
26.06.2015 04:00 7,8 C 7,6 C 85 % 1024,1 hPa 0,0 mm 0,0 km/h (0 Bft) O 90 5,4 C 0,0 km/h (0 Bft)
26.06.2015 04:05 7,9 C 7,7 C 86 % 1024,1 hPa 0,0 mm 0,0 km/h (0 Bft) O 90 5,7 C 0,0 km/h (0 Bft)
26.06.2015 04:10 7,7 C 7,5 C 86 % 1024,1 hPa 0,0 mm 0,0 km/h (0 Bft) O 90 5,5 C 0,0 km/h (0 Bft)
26.06.2015 04:15 7,5 C 7,4 C 85 % 1023,9 hPa 0,0 mm 0,0 km/h (0 Bft) O 90 5,1 C 0,0 km/h (0 Bft)
26.06.2015 04:20 8,1 C 7,8 C 86 % 1023,9 hPa 0,0 mm 0,0 km/h (0 Bft) O 90 5,9 C 0,0 km/h (0 Bft)
26.06.2015 04:25 7,9 C 7,7 C 86 % 1023,9 hPa 0,0 mm 0,0 km/h (0 Bft) O 90 5,7 C 0,0 km/h (0 Bft)
26.06.2015 04:30 7,8 C 7,7 C 86 % 1023,9 hPa 0,0 mm 0,0 km/h (0 Bft) O 90 5,6 C 0,0 km/h (0 Bft)
26.06.2015 04:35 7,8 C 7,6 C 86 % 1024,0 hPa 0,0 mm 0,0 km/h (0 Bft) O 90 5,6 C 0,0 km/h (0 Bft)
26.06.2015 04:40 7,9 C 7,7 C 87 % 1024,0 hPa 0,0 mm 0,0 km/h (0 Bft) O 90 5,9 C 0,0 km/h (0 Bft)
26.06.2015 04:45 7,7 C 7,6 C 87 % 1024,0 hPa 0,0 mm 0,0 km/h (0 Bft) O-NO 67 5,7 C 0,0 km/h (0 Bft)
26.06.2015 04:50 7,9 C 7,7 C 87 % 1024,0 hPa 0,0 mm 0,0 km/h (0 Bft) S 180 5,9 C 0,0 km/h (0 Bft)
26.06.2015 04:55 8,0 C 7,8 C 87 % 1023,9 hPa 0,0 mm 0,0 km/h (0 Bft) S-SW 202 6,0 C 0,0 km/h (0 Bft)
26.06.2015 05:00 7,8 C 7,7 C 87 % 1023,9 hPa 0,0 mm 0,0 km/h (0 Bft) S-SW 202 5,8 C 0,0 km/h (0 Bft)
26.06.2015 05:05 7,9 C 7,7 C 87 % 1023,9 hPa 0,0 mm 0,0 km/h (0 Bft) SO 135 5,9 C 0,0 km/h (0 Bft)
26.06.2015 05:10 7,9 C 7,8 C 87 % 1023,9 hPa 0,0 mm 0,0 km/h (0 Bft) O-NO 67 5,9 C 0,0 km/h (0 Bft)
26.06.2015 05:15 7,9 C 7,8 C 88 % 1023,8 hPa 0,0 mm 0,0 km/h (0 Bft) O-SO 112 6,0 C 0,0 km/h (0 Bft)
26.06.2015 05:20 8,0 C 7,8 C 88 % 1023,8 hPa 0,0 mm 0,0 km/h (0 Bft) O 90 6,1 C 0,0 km/h (0 Bft)
26.06.2015 05:25 8,0 C 7,8 C 88 % 1023,8 hPa 0,0 mm 0,0 km/h (0 Bft) SO 135 6,1 C 0,0 km/h (0 Bft)
26.06.2015 05:30 8,2 C 8,2 C 84 % 1023,8 hPa 0,0 mm 0,0 km/h (0 Bft) S-SO 157 5,7 C 0,0 km/h (0 Bft)
26.06.2015 05:35 8,4 C 8,2 C 88 % 1024,0 hPa 0,0 mm 0,0 km/h (0 Bft) S-SO 157 6,5 C 0,0 km/h (0 Bft)
26.06.2015 05:40 8,6 C 8,5 C 84 % 1024,0 hPa 0,0 mm 0,0 km/h (0 Bft) SO 135 6,1 C 0,0 km/h (0 Bft)
26.06.2015 05:45 8,7 C 8,7 C 84 % 1024,0 hPa 0,0 mm 0,0 km/h (0 Bft) O-NO 67 6,2 C 0,0 km/h (0 Bft)
26.06.2015 05:50 8,8 C 8,9 C 84 % 1024,0 hPa 0,0 mm 0,0 km/h (0 Bft) O-NO 67 6,2 C 0,0 km/h (0 Bft)
26.06.2015 05:55 8,9 C 9,0 C 84 % 1023,9 hPa 0,0 mm 0,0 km/h (0 Bft) O-NO 67 6,3 C 0,0 km/h (0 Bft)
26.06.2015 06:00 9,1 C 9,2 C 84 % 1023,9 hPa 0,0 mm 0,0 km/h (0 Bft) O-NO 67 6,5 C 0,0 km/h (0 Bft)
26.06.2015 06:05 9,2 C 9,3 C 84 % 1023,9 hPa 0,0 mm 0,0 km/h (0 Bft) O 90 6,6 C 0,0 km/h (0 Bft)
26.06.2015 06:10 9,4 C 9,6 C 84 % 1023,9 hPa 0,0 mm 0,0 km/h (0 Bft) O-NO 67 6,8 C 0,0 km/h (0 Bft)
26.06.2015 06:15 9,7 C 10,8 C 84 % 1023,8 hPa 0,0 mm 0,0 km/h (0 Bft) O-NO 67 7,1 C 0,0 km/h (0 Bft)
26.06.2015 06:20 10,2 C 12,7 C 84 % 1023,8 hPa 0,0 mm 0,0 km/h (0 Bft) W-NW 292 7,6 C 0,0 km/h (0 Bft)
26.06.2015 06:25 10,8 C 14,0 C 83 % 1023,8 hPa 0,0 mm 0,0 km/h (0 Bft) NO 45 8,0 C 0,0 km/h (0 Bft)
26.06.2015 06:30 11,1 C 15,0 C 85 % 1023,8 hPa 0,0 mm 0,0 km/h (0 Bft) NO 45 8,7 C 0,0 km/h (0 Bft)
26.06.2015 06:35 11,4 C 15,8 C 85 % 1023,9 hPa 0,0 mm 0,0 km/h (0 Bft) O-NO 67 9,0 C 0,0 km/h (0 Bft)
26.06.2015 06:40 11,7 C 16,9 C 83 % 1023,9 hPa 0,0 mm 0,0 km/h (0 Bft) O-NO 67 8,9 C 0,0 km/h (0 Bft)
26.06.2015 06:45 12,0 C 17,3 C 83 % 1023,9 hPa 0,0 mm 0,0 km/h (0 Bft) O-NO 67 9,2 C 0,0 km/h (0 Bft)
26.06.2015 06:50 12,1 C 18,0 C 81 % 1023,9 hPa 0,0 mm 0,0 km/h (0 Bft) O-NO 67 8,9 C 0,0 km/h (0 Bft)
26.06.2015 06:55 12,7 C 18,5 C 81 % 1024,0 hPa 0,0 mm 0,0 km/h (0 Bft) O-NO 67 9,5 C 0,0 km/h (0 Bft)
26.06.2015 07:00 13,3 C 19,7 C 76 % 1024,0 hPa 0,0 mm 0,0 km/h (0 Bft) O-NO 67 9,2 C 0,0 km/h (0 Bft)
26.06.2015 07:05 13,3 C 19,8 C 78 % 1024,0 hPa 0,0 mm 0,0 km/h (0 Bft) O-NO 67 9,5 C 0,0 km/h (0 Bft)
26.06.2015 07:10 14,1 C 20,0 C 78 % 1024,0 hPa 0,0 mm 0,0 km/h (0 Bft) NW 315 10,3 C 0,0 km/h (0 Bft)
26.06.2015 07:15 14,5 C 20,1 C 75 % 1024,0 hPa 0,0 mm 0,5 km/h (0 Bft) NW 315 10,1 C 4,9 km/h (1 Bft)
26.06.2015 07:20 14,7 C 20,5 C 74 % 1024,0 hPa 0,0 mm 1,6 km/h (1 Bft) W-SW 247 10,1 C 5,7 km/h (1 Bft)
26.06.2015 07:25 15,3 C 21,4 C 74 % 1024,0 hPa 0,0 mm 1,0 km/h (0 Bft) S 180 10,7 C 0,0 km/h (0 Bft)
26.06.2015 07:30 15,1 C 23,2 C 73 % 1024,0 hPa 0,0 mm 0,0 km/h (0 Bft) S 180 10,3 C 0,0 km/h (0 Bft)
26.06.2015 07:35 15,6 C 23,7 C 72 % 1023,9 hPa 0,0 mm 0,0 km/h (0 Bft) S 180 10,6 C 0,0 km/h (0 Bft)
26.06.2015 07:40 16,0 C 23,6 C 70 % 1023,9 hPa 0,0 mm 1,0 km/h (0 Bft) S 180 10,5 C 8,8 km/h (2 Bft)
26.06.2015 07:45 16,1 C 23,8 C 70 % 1023,9 hPa 0,0 mm 1,6 km/h (1 Bft) S 180 10,6 C 0,0 km/h (0 Bft)
26.06.2015 07:50 16,1 C 24,5 C 69 % 1023,9 hPa 0,0 mm 0,8 km/h (0 Bft) S-SO 157 10,4 C 0,0 km/h (0 Bft)
26.06.2015 07:55 16,3 C 25,0 C 70 % 1023,9 hPa 0,0 mm 0,5 km/h (0 Bft) S-SO 157 10,8 C 0,0 km/h (0 Bft)
26.06.2015 08:00 16,9 C 25,3 C 69 % 1023,9 hPa 0,0 mm 0,3 km/h (0 Bft) W-SW 247 11,2 C 0,0 km/h (0 Bft)
26.06.2015 08:05 17,0 C 25,3 C 67 % 1023,9 hPa 0,0 mm 1,6 km/h (1 Bft) W-SW 247 10,8 C 8,3 km/h (2 Bft)
26.06.2015 08:10 17,0 C 25,3 C 67 % 1023,9 hPa 0,0 mm 2,6 km/h (1 Bft) S 180 10,8 C 0,0 km/h (0 Bft)
26.06.2015 08:15 17,2 C 26,2 C 66 % 1023,9 hPa 0,0 mm 1,6 km/h (1 Bft) W-SW 247 10,8 C 0,0 km/h (0 Bft)
26.06.2015 08:20 18,0 C 27,0 C 65 % 1023,9 hPa 0,0 mm 0,0 km/h (0 Bft) N-NW 337 11,3 C 0,0 km/h (0 Bft)
26.06.2015 08:25 18,4 C 27,2 C 64 % 1023,9 hPa 0,0 mm 0,0 km/h (0 Bft) NO 45 11,5 C 0,0 km/h (0 Bft)
26.06.2015 08:30 18,9 C 27,2 C 64 % 1023,9 hPa 0,0 mm 0,8 km/h (0 Bft) W-SW 247 11,9 C 2,6 km/h (1 Bft)
26.06.2015 08:35 19,3 C 27,0 C 63 % 1023,9 hPa 0,0 mm 2,3 km/h (1 Bft) N-NW 337 12,1 C 4,9 km/h (1 Bft)
26.06.2015 08:40 19,5 C 27,2 C 62 % 1023,9 hPa 0,0 mm 2,8 km/h (1 Bft) NO 45 12,0 C 3,9 km/h (1 Bft)
26.06.2015 08:45 19,7 C 27,3 C 61 % 1023,9 hPa 0,0 mm 2,6 km/h (1 Bft) NW 315 12,0 C 3,6 km/h (1 Bft)
26.06.2015 08:50 20,0 C 27,7 C 60 % 1023,9 hPa 0,0 mm 1,8 km/h (1 Bft) N-NO 22 12,0 C 0,0 km/h (0 Bft)
26.06.2015 08:55 20,1 C 27,8 C 60 % 1024,1 hPa 0,0 mm 2,3 km/h (1 Bft) N-NW 337 12,1 C 2,8 km/h (1 Bft)
26.06.2015 09:00 20,2 C 27,7 C 59 % 1024,1 hPa 0,0 mm 2,6 km/h (1 Bft) NW 315 11,9 C 3,6 km/h (1 Bft)
26.06.2015 09:05 20,4 C 27,6 C 59 % 1024,1 hPa 0,0 mm 3,1 km/h (1 Bft) N-NO 22 12,1 C 5,7 km/h (1 Bft)
26.06.2015 09:10 20,4 C 27,4 C 58 % 1024,1 hPa 0,0 mm 4,7 km/h (1 Bft) NW 315 11,9 C 11,4 km/h (2 Bft)
26.06.2015 09:15 20,7 C 27,4 C 58 % 1024,3 hPa 0,0 mm 4,4 km/h (1 Bft) NW 315 12,1 C 5,7 km/h (1 Bft)
26.06.2015 09:20 20,9 C 27,5 C 57 % 1024,3 hPa 0,0 mm 4,7 km/h (1 Bft) N-NO 22 12,1 C 12,2 km/h (2 Bft)
26.06.2015 09:25 20,7 C 26,7 C 56 % 1024,3 hPa 0,0 mm 6,2 km/h (2 Bft) NW 315 11,6 C 10,9 km/h (2 Bft)
26.06.2015 09:30 20,3 C 25,0 C 56 % 1024,3 hPa 0,0 mm 5,7 km/h (1 Bft) W-NW 292 11,2 C 12,9 km/h (3 Bft)
26.06.2015 09:35 20,5 C 24,9 C 57 % 1024,6 hPa 0,0 mm 4,9 km/h (1 Bft) W-NW 292 11,7 C 7,8 km/h (2 Bft)
26.06.2015 09:40 20,8 C 25,5 C 55 % 1024,6 hPa 0,0 mm 6,5 km/h (2 Bft) W-NW 292 11,4 C 14,0 km/h (3 Bft)
26.06.2015 09:45 20,9 C 25,5 C 55 % 1024,6 hPa 0,0 mm 8,0 km/h (2 Bft) NW 315 11,5 C 7,8 km/h (2 Bft)
26.06.2015 09:50 21,1 C 26,1 C 54 % 1024,6 hPa 0,0 mm 7,0 km/h (2 Bft) NW 315 11,4 C 14,2 km/h (3 Bft)
26.06.2015 09:55 21,2 C 26,6 C 54 % 1024,4 hPa 0,0 mm 5,7 km/h (1 Bft) W 270 11,5 C 7,0 km/h (2 Bft)
26.06.2015 10:00 21,2 C 26,9 C 53 % 1024,4 hPa 0,0 mm 4,9 km/h (1 Bft) W 270 11,2 C 5,2 km/h (1 Bft)
26.06.2015 10:05 21,1 C 27,1 C 53 % 1024,4 hPa 0,0 mm 4,9 km/h (1 Bft) W-NW 292 11,1 C 4,4 km/h (1 Bft)
26.06.2015 10:10 21,6 C 27,6 C 54 % 1024,4 hPa 0,0 mm 4,1 km/h (1 Bft) N-NW 337 11,9 C 17,1 km/h (3 Bft)
26.06.2015 10:15 21,3 C 26,8 C 53 % 1024,4 hPa 0,0 mm 6,2 km/h (2 Bft) NW 315 11,3 C 5,2 km/h (1 Bft)
26.06.2015 10:20 21,3 C 26,2 C 54 % 1024,4 hPa 0,0 mm 9,1 km/h (2 Bft) NW 315 11,6 C 18,4 km/h (3 Bft)
26.06.2015 10:25 21,4 C 26,1 C 53 % 1024,4 hPa 0,0 mm 7,3 km/h (2 Bft) NW 315 11,4 C 9,1 km/h (2 Bft)
26.06.2015 10:30 21,4 C 26,0 C 53 % 1024,4 hPa 0,0 mm 7,5 km/h (2 Bft) NW 315 11,4 C 6,7 km/h (2 Bft)
26.06.2015 10:35 21,3 C 26,0 C 53 % 1024,5 hPa 0,0 mm 7,0 km/h (2 Bft) N-NW 337 11,3 C 6,5 km/h (2 Bft)
26.06.2015 10:40 21,4 C 26,0 C 53 % 1024,5 hPa 0,0 mm 8,0 km/h (2 Bft) N-NW 337 11,4 C 12,9 km/h (3 Bft)
26.06.2015 10:45 21,5 C 25,9 C 53 % 1024,5 hPa 0,0 mm 9,6 km/h (2 Bft) NW 315 11,5 C 9,8 km/h (2 Bft)
26.06.2015 10:50 21,5 C 25,6 C 53 % 1024,5 hPa 0,0 mm 6,2 km/h (2 Bft) N-NW 337 11,5 C 2,8 km/h (1 Bft)
26.06.2015 10:55 21,7 C 26,1 C 53 % 1024,6 hPa 0,0 mm 4,9 km/h (1 Bft) W 270 11,7 C 6,7 km/h (2 Bft)
26.06.2015 11:00 22,1 C 26,7 C 52 % 1024,6 hPa 0,0 mm 6,7 km/h (2 Bft) NW 315 11,8 C 10,4 km/h (2 Bft)
26.06.2015 11:05 21,9 C 26,4 C 52 % 1024,6 hPa 0,0 mm 8,3 km/h (2 Bft) W-NW 292 11,6 C 7,3 km/h (2 Bft)
26.06.2015 11:10 22,0 C 26,2 C 51 % 1024,6 hPa 0,0 mm 9,8 km/h (2 Bft) NW 315 11,4 C 20,7 km/h (4 Bft)
26.06.2015 11:15 22,1 C 26,0 C 52 % 1024,8 hPa 0,0 mm 9,6 km/h (2 Bft) NW 315 11,8 C 11,7 km/h (2 Bft)
26.06.2015 11:20 22,2 C 26,2 C 49 % 1024,8 hPa 0,0 mm 8,5 km/h (2 Bft) W-NW 292 11,0 C 6,2 km/h (2 Bft)
26.06.2015 11:25 22,3 C 26,4 C 49 % 1024,8 hPa 0,0 mm 8,8 km/h (2 Bft) NW 315 11,1 C 11,7 km/h (2 Bft)
26.06.2015 11:30 22,1 C 25,7 C 49 % 1024,8 hPa 0,0 mm 8,5 km/h (2 Bft) NW 315 10,9 C 7,3 km/h (2 Bft)
26.06.2015 11:35 22,4 C 26,2 C 49 % 1024,8 hPa 0,0 mm 7,3 km/h (2 Bft) NO 45 11,2 C 10,6 km/h (2 Bft)
26.06.2015 11:40 22,6 C 26,6 C 49 % 1024,8 hPa 0,0 mm 7,8 km/h (2 Bft) N-NW 337 11,3 C 14,0 km/h (3 Bft)
26.06.2015 11:45 22,8 C 26,7 C 49 % 1024,8 hPa 0,0 mm 8,5 km/h (2 Bft) N-NO 22 11,5 C 15,8 km/h (3 Bft)
26.06.2015 11:50 22,8 C 26,5 C 49 % 1024,8 hPa 0,0 mm 8,8 km/h (2 Bft) NW 315 11,5 C 7,8 km/h (2 Bft)
26.06.2015 11:55 23,0 C 26,7 C 48 % 1024,6 hPa 0,0 mm 8,5 km/h (2 Bft) NW 315 11,4 C 13,5 km/h (3 Bft)
26.06.2015 12:00 22,9 C 26,3 C 48 % 1024,6 hPa 0,0 mm 8,8 km/h (2 Bft) NW 315 11,3 C 4,1 km/h (1 Bft)
26.06.2015 12:05 23,0 C 26,3 C 47 % 1024,6 hPa 0,0 mm 10,1 km/h (2 Bft) W 270 11,1 C 17,3 km/h (3 Bft)
26.06.2015 12:10 23,0 C 26,2 C 47 % 1024,6 hPa 0,0 mm 9,8 km/h (2 Bft) W-SW 247 11,1 C 16,3 km/h (3 Bft)
26.06.2015 12:15 22,9 C 26,0 C 47 % 1024,5 hPa 0,0 mm 10,4 km/h (2 Bft) W 270 11,0 C 14,5 km/h (3 Bft)
26.06.2015 12:20 22,9 C 26,2 C 47 % 1024,5 hPa 0,0 mm 9,6 km/h (2 Bft) NW 315 11,0 C 8,5 km/h (2 Bft)
26.06.2015 12:25 23,1 C 26,5 C 46 % 1024,5 hPa 0,0 mm 7,5 km/h (2 Bft) NW 315 10,8 C 9,3 km/h (2 Bft)
26.06.2015 12:30 23,1 C 26,4 C 46 % 1024,5 hPa 0,0 mm 9,1 km/h (2 Bft) W-SW 247 10,8 C 10,6 km/h (2 Bft)
26.06.2015 12:35 23,0 C 26,4 C 46 % 1024,6 hPa 0,0 mm 9,3 km/h (2 Bft) W 270 10,7 C 2,8 km/h (1 Bft)
26.06.2015 12:40 23,5 C 27,1 C 46 % 1024,6 hPa 0,0 mm 6,2 km/h (2 Bft) N-NW 337 11,2 C 12,7 km/h (3 Bft)
26.06.2015 12:45 23,3 C 27,0 C 45 % 1024,6 hPa 0,0 mm 7,0 km/h (2 Bft) W-NW 292 10,7 C 8,3 km/h (2 Bft)
26.06.2015 12:50 23,4 C 26,7 C 46 % 1024,6 hPa 0,0 mm 10,4 km/h (2 Bft) N 360 11,1 C 9,8 km/h (2 Bft)
26.06.2015 12:55 23,4 C 26,2 C 44 % 1024,8 hPa 0,0 mm 9,8 km/h (2 Bft) NO 45 10,4 C 10,9 km/h (2 Bft)
26.06.2015 13:00 23,3 C 25,1 C 46 % 1024,8 hPa 0,0 mm 10,6 km/h (2 Bft) N-NO 22 11,0 C 21,0 km/h (4 Bft)
26.06.2015 13:05 23,3 C 24,9 C 45 % 1024,8 hPa 0,0 mm 11,7 km/h (2 Bft) NW 315 10,7 C 10,9 km/h (2 Bft)
26.06.2015 13:10 23,3 C 24,8 C 45 % 1024,8 hPa 0,0 mm 10,4 km/h (2 Bft) N 360 10,7 C 15,5 km/h (3 Bft)
26.06.2015 13:15 23,0 C 24,6 C 45 % 1024,5 hPa 0,0 mm 8,8 km/h (2 Bft) S 180 10,4 C 5,7 km/h (1 Bft)
26.06.2015 13:20 23,1 C 25,6 C 46 % 1024,5 hPa 0,0 mm 9,1 km/h (2 Bft) N-NW 337 10,8 C 12,7 km/h (3 Bft)
26.06.2015 13:25 23,2 C 25,8 C 46 % 1024,5 hPa 0,0 mm 9,3 km/h (2 Bft) S 180 10,9 C 4,4 km/h (1 Bft)
26.06.2015 13:30 23,3 C 26,2 C 45 % 1024,5 hPa 0,0 mm 9,6 km/h (2 Bft) NW 315 10,7 C 21,2 km/h (4 Bft)
26.06.2015 13:35 23,5 C 26,6 C 45 % 1024,2 hPa 0,0 mm 9,3 km/h (2 Bft) NW 315 10,9 C 7,3 km/h (2 Bft)
26.06.2015 13:40 23,7 C 27,2 C 43 % 1024,2 hPa 0,0 mm 9,6 km/h (2 Bft) W 270 10,4 C 7,3 km/h (2 Bft)
26.06.2015 13:45 23,8 C 27,3 C 44 % 1024,2 hPa 0,0 mm 9,3 km/h (2 Bft) NW 315 10,8 C 21,0 km/h (4 Bft)
26.06.2015 13:50 23,9 C 27,1 C 43 % 1024,2 hPa 0,0 mm 11,7 km/h (2 Bft) W-NW 292 10,5 C 21,5 km/h (4 Bft)
26.06.2015 13:55 23,9 C 27,1 C 43 % 1024,1 hPa 0,0 mm 12,7 km/h (3 Bft) NW 315 10,5 C 19,7 km/h (3 Bft)
26.06.2015 14:00 23,9 C 27,0 C 44 % 1024,1 hPa 0,0 mm 11,7 km/h (2 Bft) NW 315 10,9 C 23,8 km/h (4 Bft)
26.06.2015 14:05 24,1 C 27,0 C 43 % 1024,1 hPa 0,0 mm 11,7 km/h (2 Bft) NW 315 10,7 C 8,8 km/h (2 Bft)
26.06.2015 14:10 23,8 C 27,0 C 42 % 1024,1 hPa 0,0 mm 10,6 km/h (2 Bft) NW 315 10,1 C 8,5 km/h (2 Bft)
26.06.2015 14:15 24,0 C 27,5 C 43 % 1023,8 hPa 0,0 mm 9,1 km/h (2 Bft) W-NW 292 10,6 C 14,8 km/h (3 Bft)
26.06.2015 14:20 24,2 C 27,8 C 42 % 1023,8 hPa 0,0 mm 9,3 km/h (2 Bft) N-NW 337 10,5 C 12,4 km/h (3 Bft)
26.06.2015 14:25 24,0 C 27,4 C 41 % 1023,8 hPa 0,0 mm 11,4 km/h (2 Bft) NW 315 9,9 C 13,5 km/h (3 Bft)
26.06.2015 14:30 24,0 C 27,6 C 42 % 1023,8 hPa 0,0 mm 10,4 km/h (2 Bft) NW 315 10,3 C 17,1 km/h (3 Bft)
26.06.2015 14:35 23,8 C 27,0 C 41 % 1023,9 hPa 0,0 mm 11,1 km/h (2 Bft) N 360 9,7 C 19,2 km/h (3 Bft)
26.06.2015 14:40 23,8 C 26,8 C 43 % 1023,9 hPa 0,0 mm 11,9 km/h (2 Bft) N-NW 337 10,5 C 9,6 km/h (2 Bft)
26.06.2015 14:45 24,1 C 27,1 C 42 % 1023,9 hPa 0,0 mm 10,4 km/h (2 Bft) W 270 10,4 C 11,9 km/h (2 Bft)
26.06.2015 14:50 24,1 C 27,4 C 42 % 1023,9 hPa 0,0 mm 9,8 km/h (2 Bft) W 270 10,4 C 8,0 km/h (2 Bft)
26.06.2015 14:55 24,3 C 27,6 C 43 % 1023,8 hPa 0,0 mm 9,6 km/h (2 Bft) N-NW 337 10,9 C 11,1 km/h (2 Bft)
26.06.2015 15:00 24,3 C 27,6 C 42 % 1023,8 hPa 0,0 mm 8,5 km/h (2 Bft) W 270 10,6 C 10,6 km/h (2 Bft)
26.06.2015 15:05 24,4 C 27,7 C 43 % 1023,8 hPa 0,0 mm 8,5 km/h (2 Bft) N-NW 337 11,0 C 10,6 km/h (2 Bft)
26.06.2015 15:10 24,6 C 28,0 C 43 % 1023,8 hPa 0,0 mm 7,8 km/h (2 Bft) O-NO 67 11,2 C 5,4 km/h (1 Bft)
26.06.2015 15:15 24,4 C 28,3 C 42 % 1023,8 hPa 0,0 mm 7,8 km/h (2 Bft) W 270 10,6 C 9,8 km/h (2 Bft)
26.06.2015 15:20 24,3 C 28,1 C 41 % 1023,8 hPa 0,0 mm 9,6 km/h (2 Bft) NW 315 10,2 C 25,1 km/h (4 Bft)
26.06.2015 15:25 24,3 C 27,6 C 41 % 1023,8 hPa 0,0 mm 11,1 km/h (2 Bft) NW 315 10,2 C 13,2 km/h (3 Bft)
26.06.2015 15:30 23,9 C 27,1 C 41 % 1023,8 hPa 0,0 mm 12,4 km/h (3 Bft) W 270 9,8 C 13,5 km/h (3 Bft)
26.06.2015 15:35 23,9 C 27,1 C 42 % 1023,4 hPa 0,0 mm 11,1 km/h (2 Bft) O 90 10,2 C 7,8 km/h (2 Bft)
26.06.2015 15:40 24,0 C 26,9 C 41 % 1023,4 hPa 0,0 mm 9,1 km/h (2 Bft) W 270 9,9 C 5,7 km/h (1 Bft)
26.06.2015 15:45 24,0 C 27,2 C 42 % 1023,4 hPa 0,0 mm 8,5 km/h (2 Bft) W-NW 292 10,3 C 13,7 km/h (3 Bft)
26.06.2015 15:50 23,7 C 26,9 C 41 % 1023,4 hPa 0,0 mm 8,3 km/h (2 Bft) NO 45 9,7 C 6,2 km/h (2 Bft)
26.06.2015 15:55 23,8 C 27,1 C 42 % 1023,1 hPa 0,0 mm 8,0 km/h (2 Bft) NW 315 10,1 C 9,8 km/h (2 Bft)
26.06.2015 16:00 23,9 C 28,1 C 41 % 1023,1 hPa 0,0 mm 6,5 km/h (2 Bft) W 270 9,8 C 16,3 km/h (3 Bft)
26.06.2015 16:05 23,7 C 28,1 C 42 % 1023,1 hPa 0,0 mm 7,5 km/h (2 Bft) NW 315 10,0 C 10,9 km/h (2 Bft)
26.06.2015 16:10 23,5 C 28,1 C 43 % 1023,1 hPa 0,0 mm 9,6 km/h (2 Bft) NW 315 10,2 C 9,6 km/h (2 Bft)
26.06.2015 16:15 23,4 C 28,2 C 43 % 1023,1 hPa 0,0 mm 8,3 km/h (2 Bft) N-NW 337 10,1 C 8,0 km/h (2 Bft)
26.06.2015 16:20 23,1 C 28,1 C 42 % 1023,1 hPa 0,0 mm 9,1 km/h (2 Bft) NW 315 9,5 C 19,7 km/h (3 Bft)
26.06.2015 16:25 22,9 C 27,6 C 43 % 1023,1 hPa 0,0 mm 11,4 km/h (2 Bft) NW 315 9,6 C 12,7 km/h (3 Bft)
26.06.2015 16:30 22,7 C 27,1 C 43 % 1023,1 hPa 0,0 mm 12,4 km/h (3 Bft) NW 315 9,5 C 10,9 km/h (2 Bft)
26.06.2015 16:35 22,7 C 27,5 C 44 % 1023,2 hPa 0,0 mm 9,6 km/h (2 Bft) N-NW 337 9,8 C 4,7 km/h (1 Bft)
26.06.2015 16:40 22,5 C 28,0 C 44 % 1023,2 hPa 0,0 mm 7,3 km/h (2 Bft) W 270 9,6 C 10,1 km/h (2 Bft)
26.06.2015 16:45 22,6 C 28,0 C 44 % 1023,2 hPa 0,0 mm 7,8 km/h (2 Bft) N-NW 337 9,7 C 11,4 km/h (2 Bft)
26.06.2015 16:50 22,6 C 27,2 C 44 % 1023,2 hPa 0,0 mm 8,3 km/h (2 Bft) W 270 9,7 C 13,2 km/h (3 Bft)
26.06.2015 16:55 22,6 C 26,8 C 43 % 1023,1 hPa 0,0 mm 9,6 km/h (2 Bft) NW 315 9,4 C 10,9 km/h (2 Bft)
26.06.2015 17:00 22,5 C 26,6 C 44 % 1023,1 hPa 0,0 mm 7,3 km/h (2 Bft) W 270 9,6 C 26,2 km/h (4 Bft)
26.06.2015 17:05 22,5 C 26,5 C 44 % 1023,1 hPa 0,0 mm 5,4 km/h (1 Bft) NW 315 9,6 C 5,7 km/h (1 Bft)
26.06.2015 17:10 22,5 C 25,5 C 44 % 1023,1 hPa 0,0 mm 7,3 km/h (2 Bft) W-NW 292 9,6 C 18,9 km/h (3 Bft)
26.06.2015 17:15 22,5 C 25,1 C 44 % 1023,1 hPa 0,0 mm 8,8 km/h (2 Bft) NW 315 9,6 C 8,3 km/h (2 Bft)
26.06.2015 17:20 22,7 C 25,1 C 44 % 1023,1 hPa 0,0 mm 9,1 km/h (2 Bft) NW 315 9,8 C 9,3 km/h (2 Bft)
26.06.2015 17:25 22,7 C 25,1 C 44 % 1023,1 hPa 0,0 mm 8,5 km/h (2 Bft) NW 315 9,8 C 5,4 km/h (1 Bft)
26.06.2015 17:30 22,9 C 25,2 C 44 % 1023,1 hPa 0,0 mm 8,5 km/h (2 Bft) NW 315 10,0 C 8,8 km/h (2 Bft)
26.06.2015 17:35 22,9 C 25,3 C 44 % 1022,9 hPa 0,0 mm 7,5 km/h (2 Bft) W 270 10,0 C 6,2 km/h (2 Bft)
26.06.2015 17:40 22,9 C 25,2 C 45 % 1022,9 hPa 0,0 mm 6,5 km/h (2 Bft) W-SW 247 10,3 C 7,0 km/h (2 Bft)
26.06.2015 17:45 22,9 C 25,0 C 45 % 1022,9 hPa 0,0 mm 5,4 km/h (1 Bft) NW 315 10,3 C 2,8 km/h (1 Bft)
26.06.2015 17:50 22,8 C 25,0 C 44 % 1022,9 hPa 0,0 mm 3,9 km/h (1 Bft) W-SW 247 9,9 C 3,1 km/h (1 Bft)
26.06.2015 17:55 22,9 C 25,4 C 45 % 1022,8 hPa 0,0 mm 2,1 km/h (1 Bft) N-NO 22 10,3 C 0,0 km/h (0 Bft)
26.06.2015 18:00 22,9 C 25,4 C 44 % 1022,8 hPa 0,0 mm 3,9 km/h (1 Bft) N-NO 22 10,0 C 13,2 km/h (3 Bft)
26.06.2015 18:05 22,8 C 25,0 C 43 % 1022,8 hPa 0,0 mm 6,7 km/h (2 Bft) NW 315 9,6 C 8,5 km/h (2 Bft)
26.06.2015 18:10 22,9 C 24,6 C 44 % 1022,8 hPa 0,0 mm 7,0 km/h (2 Bft) N-NW 337 10,0 C 5,2 km/h (1 Bft)
26.06.2015 18:15 22,9 C 24,4 C 44 % 1022,9 hPa 0,0 mm 7,0 km/h (2 Bft) N-NW 337 10,0 C 10,9 km/h (2 Bft)
26.06.2015 18:20 23,0 C 24,3 C 43 % 1022,9 hPa 0,0 mm 7,5 km/h (2 Bft) NW 315 9,7 C 6,7 km/h (2 Bft)
26.06.2015 18:25 22,9 C 24,2 C 44 % 1022,9 hPa 0,0 mm 7,8 km/h (2 Bft) NW 315 10,0 C 11,7 km/h (2 Bft)
26.06.2015 18:30 22,2 C 23,6 C 44 % 1022,9 hPa 0,0 mm 7,8 km/h (2 Bft) W-NW 292 9,4 C 6,5 km/h (2 Bft)
26.06.2015 18:35 22,1 C 23,7 C 44 % 1022,9 hPa 0,0 mm 7,5 km/h (2 Bft) W-NW 292 9,3 C 5,2 km/h (1 Bft)
26.06.2015 18:40 22,0 C 23,7 C 45 % 1022,9 hPa 0,0 mm 7,3 km/h (2 Bft) W-NW 292 9,5 C 9,8 km/h (2 Bft)
26.06.2015 18:45 22,0 C 23,5 C 46 % 1022,9 hPa 0,0 mm 7,3 km/h (2 Bft) W-NW 292 9,8 C 7,3 km/h (2 Bft)
26.06.2015 18:50 22,0 C 23,5 C 47 % 1022,9 hPa 0,0 mm 7,5 km/h (2 Bft) NW 315 10,2 C 6,7 km/h (2 Bft)
26.06.2015 18:55 22,1 C 23,8 C 48 % 1022,7 hPa 0,0 mm 6,0 km/h (2 Bft) W-NW 292 10,6 C 6,0 km/h (2 Bft)
26.06.2015 19:00 22,2 C 24,1 C 47 % 1022,7 hPa 0,0 mm 4,7 km/h (1 Bft) NW 315 10,3 C 9,1 km/h (2 Bft)
26.06.2015 19:05 22,2 C 24,8 C 47 % 1022,7 hPa 0,0 mm 4,9 km/h (1 Bft) N-NW 337 10,3 C 5,4 km/h (1 Bft)
26.06.2015 19:10 22,0 C 24,1 C 47 % 1022,7 hPa 0,0 mm 4,1 km/h (1 Bft) W-NW 292 10,2 C 8,5 km/h (2 Bft)
26.06.2015 19:15 21,7 C 23,5 C 48 % 1022,8 hPa 0,0 mm 4,4 km/h (1 Bft) N-NW 337 10,2 C 4,1 km/h (1 Bft)
26.06.2015 19:20 21,5 C 23,0 C 48 % 1022,8 hPa 0,0 mm 4,9 km/h (1 Bft) NW 315 10,0 C 7,0 km/h (2 Bft)
26.06.2015 19:25 21,4 C 22,6 C 49 % 1022,8 hPa 0,0 mm 4,1 km/h (1 Bft) W-NW 292 10,2 C 4,7 km/h (1 Bft)
26.06.2015 19:30 21,4 C 22,6 C 49 % 1022,8 hPa 0,0 mm 3,1 km/h (1 Bft) NW 315 10,2 C 0,0 km/h (0 Bft)
26.06.2015 19:35 21,3 C 22,5 C 49 % 1022,8 hPa 0,0 mm 2,8 km/h (1 Bft) W-NW 292 10,1 C 3,9 km/h (1 Bft)
26.06.2015 19:40 21,4 C 22,6 C 49 % 1022,8 hPa 0,0 mm 2,3 km/h (1 Bft) W-NW 292 10,2 C 0,0 km/h (0 Bft)
26.06.2015 19:45 21,3 C 22,7 C 50 % 1022,8 hPa 0,0 mm 1,0 km/h (0 Bft) NW 315 10,4 C 0,0 km/h (0 Bft)
26.06.2015 19:50 21,4 C 23,0 C 50 % 1022,8 hPa 0,0 mm 1,0 km/h (0 Bft) N-NO 22 10,5 C 7,0 km/h (2 Bft)
26.06.2015 19:55 21,3 C 22,9 C 50 % 1022,9 hPa 0,0 mm 2,1 km/h (1 Bft) NW 315 10,4 C 0,0 km/h (0 Bft)
26.06.2015 20:00 21,3 C 23,1 C 51 % 1022,9 hPa 0,0 mm 1,6 km/h (1 Bft) N-NW 337 10,7 C 0,0 km/h (0 Bft)
26.06.2015 20:05 21,4 C 23,6 C 52 % 1022,9 hPa 0,0 mm 0,5 km/h (0 Bft) NW 315 11,1 C 0,0 km/h (0 Bft)
26.06.2015 20:10 21,4 C 23,6 C 52 % 1022,9 hPa 0,0 mm 1,0 km/h (0 Bft) W-NW 292 11,1 C 2,6 km/h (1 Bft)
26.06.2015 20:15 21,2 C 23,0 C 52 % 1022,8 hPa 0,0 mm 2,8 km/h (1 Bft) N 360 10,9 C 4,7 km/h (1 Bft)
26.06.2015 20:20 21,0 C 22,8 C 52 % 1022,8 hPa 0,0 mm 2,3 km/h (1 Bft) NO 45 10,8 C 0,0 km/h (0 Bft)
26.06.2015 20:25 20,6 C 22,4 C 53 % 1022,8 hPa 0,0 mm 0,8 km/h (0 Bft) NO 45 10,7 C 0,0 km/h (0 Bft)
26.06.2015 20:30 20,2 C 21,8 C 54 % 1022,8 hPa 0,0 mm 0,0 km/h (0 Bft) NO 45 10,6 C 0,0 km/h (0 Bft)
26.06.2015 20:35 19,9 C 21,3 C 55 % 1022,9 hPa 0,0 mm 0,0 km/h (0 Bft) NO 45 10,6 C 0,0 km/h (0 Bft)
26.06.2015 20:40 19,5 C 20,4 C 56 % 1022,9 hPa 0,0 mm 0,0 km/h (0 Bft) SO 135 10,5 C 0,0 km/h (0 Bft)
26.06.2015 20:45 19,1 C 19,9 C 57 % 1022,9 hPa 0,0 mm 0,0 km/h (0 Bft) SO 135 10,4 C 0,0 km/h (0 Bft)
26.06.2015 20:50 18,7 C 19,3 C 59 % 1022,9 hPa 0,0 mm 0,5 km/h (0 Bft) S-SO 157 10,5 C 2,8 km/h (1 Bft)
26.06.2015 20:55 18,4 C 19,0 C 59 % 1022,9 hPa 0,0 mm 1,3 km/h (1 Bft) S-SO 157 10,2 C 0,0 km/h (0 Bft)
26.06.2015 21:00 18,0 C 18,5 C 60 % 1022,9 hPa 0,0 mm 1,8 km/h (1 Bft) S-SO 157 10,1 C 2,6 km/h (1 Bft)
26.06.2015 21:05 17,8 C 18,3 C 61 % 1022,9 hPa 0,0 mm 1,3 km/h (1 Bft) SO 135 10,2 C 0,0 km/h (0 Bft)
26.06.2015 21:10 17,5 C 18,1 C 63 % 1022,9 hPa 0,0 mm 1,3 km/h (1 Bft) S 180 10,4 C 0,0 km/h (0 Bft)
26.06.2015 21:15 17,4 C 17,9 C 63 % 1023,0 hPa 0,0 mm 1,0 km/h (0 Bft) S 180 10,3 C 3,4 km/h (1 Bft)
26.06.2015 21:20 17,3 C 17,8 C 64 % 1023,0 hPa 0,0 mm 0,8 km/h (0 Bft) S 180 10,4 C 0,0 km/h (0 Bft)
26.06.2015 21:25 17,2 C 17,6 C 65 % 1023,0 hPa 0,0 mm 0,3 km/h (0 Bft) S 180 10,6 C 0,0 km/h (0 Bft)
26.06.2015 21:30 17,0 C 17,3 C 64 % 1023,0 hPa 0,0 mm 0,0 km/h (0 Bft) S 180 10,1 C 0,0 km/h (0 Bft)
26.06.2015 21:35 16,9 C 17,1 C 65 % 1022,8 hPa 0,0 mm 0,0 km/h (0 Bft) S 180 10,3 C 0,0 km/h (0 Bft)
26.06.2015 21:40 16,8 C 16,9 C 66 % 1022,8 hPa 0,0 mm 0,3 km/h (0 Bft) S 180 10,4 C 3,1 km/h (1 Bft)
26.06.2015 21:45 16,7 C 16,8 C 66 % 1022,8 hPa 0,0 mm 0,8 km/h (0 Bft) S-SO 157 10,3 C 0,0 km/h (0 Bft)
26.06.2015 21:50 16,5 C 16,6 C 67 % 1022,8 hPa 0,0 mm 0,8 km/h (0 Bft) S-SO 157 10,4 C 0,0 km/h (0 Bft)
26.06.2015 21:55 16,4 C 16,5 C 67 % 1023,1 hPa 0,0 mm 0,0 km/h (0 Bft) SO 135 10,3 C 0,0 km/h (0 Bft)
26.06.2015 22:00 16,2 C 16,3 C 67 % 1023,1 hPa 0,0 mm 0,0 km/h (0 Bft) S-SO 157 10,1 C 0,0 km/h (0 Bft)
26.06.2015 22:05 16,1 C 16,3 C 68 % 1023,1 hPa 0,0 mm 0,0 km/h (0 Bft) S 180 10,2 C 0,0 km/h (0 Bft)
26.06.2015 22:10 16,1 C 16,3 C 68 % 1023,1 hPa 0,0 mm 0,0 km/h (0 Bft) S 180 10,2 C 0,0 km/h (0 Bft)
26.06.2015 22:15 16,0 C 16,2 C 69 % 1022,9 hPa 0,0 mm 0,0 km/h (0 Bft) S 180 10,3 C 0,0 km/h (0 Bft)
26.06.2015 22:20 15,7 C 16,0 C 69 % 1022,9 hPa 0,0 mm 0,0 km/h (0 Bft) S-SO 157 10,0 C 0,0 km/h (0 Bft)
26.06.2015 22:25 15,6 C 15,8 C 70 % 1022,9 hPa 0,0 mm 0,0 km/h (0 Bft) S-SO 157 10,1 C 0,0 km/h (0 Bft)
26.06.2015 22:30 15,4 C 15,5 C 71 % 1022,9 hPa 0,0 mm 0,0 km/h (0 Bft) S-SO 157 10,2 C 0,0 km/h (0 Bft)
26.06.2015 22:35 15,3 C 15,4 C 69 % 1022,8 hPa 0,0 mm 0,0 km/h (0 Bft) S 180 9,6 C 0,0 km/h (0 Bft)
26.06.2015 22:40 15,0 C 15,1 C 69 % 1022,8 hPa 0,0 mm 0,0 km/h (0 Bft) S 180 9,4 C 0,0 km/h (0 Bft)
26.06.2015 22:45 14,9 C 14,9 C 70 % 1022,8 hPa 0,0 mm 0,0 km/h (0 Bft) S-SO 157 9,5 C 0,0 km/h (0 Bft)
26.06.2015 22:50 14,8 C 14,7 C 71 % 1022,8 hPa 0,0 mm 0,0 km/h (0 Bft) S 180 9,6 C 0,0 km/h (0 Bft)
26.06.2015 22:55 14,9 C 14,8 C 70 % 1022,8 hPa 0,0 mm 0,0 km/h (0 Bft) S 180 9,5 C 0,0 km/h (0 Bft)
26.06.2015 23:00 14,6 C 14,5 C 70 % 1022,8 hPa 0,0 mm 0,0 km/h (0 Bft) S-SO 157 9,2 C 0,0 km/h (0 Bft)
26.06.2015 23:05 14,5 C 14,4 C 70 % 1022,8 hPa 0,0 mm 0,0 km/h (0 Bft) S-SO 157 9,1 C 0,0 km/h (0 Bft)
26.06.2015 23:10 14,4 C 14,3 C 70 % 1022,8 hPa 0,0 mm 0,0 km/h (0 Bft) S-SO 157 9,0 C 0,0 km/h (0 Bft)
26.06.2015 23:15 14,3 C 14,1 C 71 % 1022,8 hPa 0,0 mm 0,0 km/h (0 Bft) S-SO 157 9,1 C 0,0 km/h (0 Bft)
26.06.2015 23:20 14,0 C 13,9 C 71 % 1022,8 hPa 0,0 mm 0,0 km/h (0 Bft) S-SO 157 8,8 C 0,0 km/h (0 Bft)
26.06.2015 23:25 14,0 C 13,8 C 72 % 1022,8 hPa 0,0 mm 0,0 km/h (0 Bft) S-SO 157 9,0 C 0,0 km/h (0 Bft)
26.06.2015 23:30 14,2 C 13,9 C 72 % 1022,8 hPa 0,0 mm 0,0 km/h (0 Bft) S-SO 157 9,2 C 0,0 km/h (0 Bft)
26.06.2015 23:35 14,3 C 14,0 C 72 % 1022,5 hPa 0,0 mm 0,0 km/h (0 Bft) S 180 9,3 C 0,0 km/h (0 Bft)
26.06.2015 23:40 14,6 C 14,3 C 72 % 1022,5 hPa 0,0 mm 0,0 km/h (0 Bft) S 180 9,6 C 0,0 km/h (0 Bft)
26.06.2015 23:45 14,8 C 14,5 C 72 % 1022,5 hPa 0,0 mm 0,0 km/h (0 Bft) SW 225 9,8 C 0,0 km/h (0 Bft)
26.06.2015 23:50 14,7 C 14,5 C 72 % 1022,5 hPa 0,0 mm 0,0 km/h (0 Bft) W-NW 292 9,7 C 0,0 km/h (0 Bft)
26.06.2015 23:55 14,6 C 14,5 C 72 % 1022,4 hPa 0,0 mm 0,0 km/h (0 Bft) S 180 9,6 C 0,0 km/h (0 Bft)
_ Min-Zeit 04:15 04:15 16:00 23:55 - 23:55 - - 04:15 23:55
Minimum _ 7,5 C 7,4 C 41 % 1022,4 hPa - 0,0 km/h (0 Bft) - - 5,1 C 0,0 km/h (0 Bft)
_ Max-Zeit 15:10 15:15 05:35 00:30 23:55 13:55 - - 09:15 17:00
Maximum _ 24,6 C 28,3 C 88 % 1025,4 hPa 0,0 mm 12,7 km/h
NW (3 Bft)
- - 12,1 C 26,2 km/h
W (4 Bft)
Durchschnitt _ 17,2 C 19,6 C 62 % 1023,8 hPa #0,0 mm 3,7 km/h (1 Bft) NW - 9,3 C 4,8 km/h (1 Bft)